Tracking 29892 objects as of 21-Nov-2024
HD Live streaming from Space Station
objects crossing your sky now

COSMOS 249 DEB

Track COSMOS 249 DEB now!
10-day predictions


NORAD ID: 3911
Int'l Code: 1968-091BP
Perigee: 537.9 km
Apogee: 1,717.5 km
Inclination: 62.9 °
Period: 107.7 minutes
Semi major axis: 7498 km
RCS: 0.0107 m2 (small)
Launch date: October 20, 1968
Source: Commonwealth of Independent States (former USSR) (CIS)
Launch site: TYURATAM MISSILE AND SPACE COMPLEX (TTMTR)

Note: This is SATELLITE DEBRIS
Your satellite tracking list
Your tracking list is empty




NASA's NSSDC Master Catalog

Two Line Element Set (TLE):
1 03911U 68091BP  24324.30617880  .00003650  00000-0  11268-2 0  9990
2 03911  62.9257 164.1603 0786571  27.6488 336.4148 13.36974739590271
Source of the keplerian elements: AFSPC